EWG83K EDDL-EGCC

Flight info

Callsign EWG83K
Flight time 1h 22m
Altitude 35000
Route FIRST VATSIM FLIGHT
Aircraft A32N/M-SDE3GHIJ2J3J5M1RVWXYZ/LB1

Departure

Time 2026-05-05 13:43
Airport Düsseldorf Airport (EDDL)

Arrival

Time 2026-05-05 15:05
Airport Manchester Airport (EGCC)
Time Latitude Longitude Altitude Speed Heading
2026-05-05 13:18 51.27708 6.75905 127 ft 0 kts 92°
2026-05-05 13:37 51.27708 6.75915 127 ft 6 kts 92°
2026-05-05 13:38 51.27720 6.76010 128 ft 9 kts 53°
2026-05-05 13:38 51.27776 6.76045 127 ft 10 kts
2026-05-05 13:38 51.27840 6.76038 128 ft 3 kts 323°
2026-05-05 13:38 51.27842 6.75977 127 ft 11 kts 267°
2026-05-05 13:39 51.27848 6.75863 130 ft 12 kts 279°
2026-05-05 13:39 51.27861 6.75728 125 ft 1 kts 275°
2026-05-05 13:39 51.27870 6.75646 125 ft 7 kts 303°
2026-05-05 13:39 51.27896 6.75574 121 ft 11 kts 277°
2026-05-05 13:40 51.27864 6.75465 119 ft 10 kts 233°
2026-05-05 13:40 51.27837 6.75393 122 ft 4 kts 268°
2026-05-05 13:40 51.27854 6.75346 120 ft 7 kts 319°
2026-05-05 13:40 51.27888 6.75313 122 ft 0 kts 332°
2026-05-05 13:42 51.27898 6.75306 122 ft 7 kts 333°
2026-05-05 13:42 51.27984 6.75275 120 ft 14 kts 22°
2026-05-05 13:42 51.28048 6.75387 117 ft 13 kts 52°
2026-05-05 13:43 51.28207 6.75721 122 ft 71 kts 53°
2026-05-05 13:43 51.28664 6.76673 133 ft 142 kts 53°
2026-05-05 13:43 51.29332 6.78096 530 ft 163 kts 53°
2026-05-05 13:43 51.30020 6.79572 1220 ft 168 kts 52°
2026-05-05 13:44 51.30805 6.80575 1785 ft 169 kts 15°
2026-05-05 13:44 51.31936 6.80354 2433 ft 167 kts 342°
2026-05-05 13:44 51.33120 6.80239 2889 ft 183 kts 17°
2026-05-05 13:44 51.34324 6.80984 3450 ft 190 kts 13°
2026-05-05 13:45 51.35690 6.81135 3929 ft 204 kts 356°
2026-05-05 13:45 51.37152 6.81023 4550 ft 215 kts 356°
2026-05-05 13:45 51.38705 6.80879 5009 ft 236 kts 356°
2026-05-05 13:45 51.40418 6.80713 5433 ft 256 kts 356°
2026-05-05 13:46 51.42237 6.80534 5943 ft 268 kts 356°
2026-05-05 13:46 51.44121 6.80349 6449 ft 272 kts 356°
2026-05-05 13:46 51.45943 6.80169 6937 ft 274 kts 356°
2026-05-05 13:46 51.47850 6.79981 7438 ft 276 kts 356°
2026-05-05 13:47 51.49775 6.79790 7940 ft 278 kts 356°
2026-05-05 13:47 51.51709 6.79599 8442 ft 280 kts 356°
2026-05-05 13:47 51.53660 6.79405 8944 ft 282 kts 356°
2026-05-05 13:47 51.55601 6.79212 9439 ft 284 kts 356°
2026-05-05 13:48 51.57582 6.79015 9941 ft 286 kts 356°
2026-05-05 13:48 51.59595 6.78814 10455 ft 296 kts 356°
2026-05-05 13:48 51.61691 6.78571 10960 ft 309 kts 352°
2026-05-05 13:48 51.63871 6.77921 11303 ft 328 kts 347°
2026-05-05 13:49 51.66173 6.77163 11699 ft 344 kts 349°
2026-05-05 13:49 51.68578 6.76579 12330 ft 352 kts 353°
2026-05-05 13:49 51.71035 6.76230 13047 ft 357 kts 356°
2026-05-05 13:49 51.73563 6.76074 13778 ft 361 kts 359°
2026-05-05 13:50 51.76066 6.76045 14481 ft 365 kts 360°
2026-05-05 13:50 51.78621 6.76080 15179 ft 369 kts
2026-05-05 13:50 51.81201 6.76139 15857 ft 373 kts
2026-05-05 13:50 51.83781 6.76197 16508 ft 377 kts
2026-05-05 13:51 51.86450 6.76248 17168 ft 380 kts
2026-05-05 13:51 51.89110 6.76288 17783 ft 384 kts
2026-05-05 13:51 51.91758 6.76320 18378 ft 387 kts
2026-05-05 13:51 51.94468 6.76324 18957 ft 391 kts 358°
2026-05-05 13:52 51.97184 6.75914 19524 ft 394 kts 350°
2026-05-05 13:52 51.99856 6.74819 20075 ft 397 kts 340°
2026-05-05 13:52 52.00434 6.74471 20200 ft 398 kts 338°
2026-05-05 13:54 52.02555 6.72770 20662 ft 400 kts 328°
2026-05-05 13:54 52.04787 6.70043 21189 ft 403 kts 316°
2026-05-05 13:55 52.06685 6.66672 21718 ft 406 kts 309°
2026-05-05 13:55 52.08415 6.63034 22209 ft 409 kts 306°
2026-05-05 13:55 52.10072 6.59245 22708 ft 412 kts 304°
2026-05-05 13:55 52.11699 6.55385 23181 ft 415 kts 304°
2026-05-05 13:56 52.13331 6.51488 23635 ft 418 kts 304°
2026-05-05 13:56 52.14970 6.47594 24080 ft 421 kts 304°
2026-05-05 13:56 52.16643 6.43654 24507 ft 424 kts 304°
2026-05-05 13:56 52.18340 6.39690 24905 ft 426 kts 304°
2026-05-05 13:57 52.20054 6.35704 25312 ft 429 kts 305°
2026-05-05 13:57 52.21754 6.31755 25699 ft 432 kts 305°
2026-05-05 13:57 52.23449 6.27679 26078 ft 434 kts 301°
2026-05-05 13:57 52.24853 6.23300 26441 ft 436 kts 293°
2026-05-05 13:58 52.26018 6.18703 26801 ft 439 kts 291°
2026-05-05 13:58 52.27094 6.14060 27150 ft 441 kts 290°
2026-05-05 13:58 52.28133 6.09318 27492 ft 443 kts 289°
2026-05-05 13:58 52.29153 6.04531 27825 ft 446 kts 289°
2026-05-05 13:59 52.31175 5.94951 28457 ft 450 kts 289°
2026-05-05 13:59 52.32201 5.90107 28760 ft 452 kts 289°
2026-05-05 14:00 52.34272 5.80366 29489 ft 453 kts 289°
2026-05-05 14:00 52.35310 5.75489 29901 ft 452 kts 289°
2026-05-05 14:00 52.36339 5.70644 30289 ft 451 kts 289°
2026-05-05 14:00 52.37362 5.65818 30655 ft 450 kts 289°
2026-05-05 14:01 52.38387 5.60970 31009 ft 449 kts 289°
2026-05-05 14:01 52.39409 5.56120 31353 ft 449 kts 289°
2026-05-05 14:01 52.40412 5.51349 31680 ft 448 kts 289°
2026-05-05 14:01 52.41426 5.46515 32005 ft 447 kts 289°
2026-05-05 14:02 52.42437 5.41681 32315 ft 447 kts 289°
2026-05-05 14:02 52.43443 5.36862 32615 ft 446 kts 289°
2026-05-05 14:02 52.44448 5.32035 32919 ft 446 kts 289°
2026-05-05 14:02 52.45447 5.27228 33200 ft 445 kts 289°
2026-05-05 14:03 52.46431 5.22475 33465 ft 445 kts 289°
2026-05-05 14:03 52.47428 5.17655 33727 ft 444 kts 288°
2026-05-05 14:03 52.48421 5.12839 33983 ft 444 kts 288°
2026-05-05 14:03 52.49412 5.08022 34236 ft 443 kts 288°
2026-05-05 14:04 52.50382 5.03297 34466 ft 443 kts 288°
2026-05-05 14:04 52.51364 4.98498 34693 ft 443 kts 288°
2026-05-05 14:04 52.52342 4.93712 34918 ft 442 kts 288°
2026-05-05 14:04 52.53322 4.88901 35128 ft 442 kts 288°
2026-05-05 14:05 52.54315 4.84116 35338 ft 441 kts 289°
2026-05-05 14:05 52.55351 4.79420 35541 ft 441 kts 290°
2026-05-05 14:05 52.56435 4.74676 35735 ft 441 kts 290°
2026-05-05 14:05 52.57528 4.69956 35917 ft 440 kts 291°
2026-05-05 14:06 52.58604 4.65311 36091 ft 440 kts 290°
2026-05-05 14:06 52.59689 4.60604 36259 ft 440 kts 290°
2026-05-05 14:06 52.60773 4.55868 36423 ft 440 kts 290°
2026-05-05 14:06 52.61833 4.51209 36569 ft 440 kts 290°
2026-05-05 14:07 52.62906 4.46470 36716 ft 440 kts 290°
2026-05-05 14:07 52.63972 4.41744 36854 ft 440 kts 290°
2026-05-05 14:07 52.65041 4.36991 37015 ft 439 kts 290°
2026-05-05 14:07 52.66084 4.32340 37252 ft 436 kts 290°
2026-05-05 14:08 52.67138 4.27633 37487 ft 434 kts 290°
2026-05-05 14:08 52.68179 4.22973 37683 ft 431 kts 290°
2026-05-05 14:08 52.69207 4.18361 37880 ft 429 kts 290°
2026-05-05 14:08 52.70236 4.13735 37997 ft 429 kts 290°
2026-05-05 14:09 52.72288 4.04481 38002 ft 433 kts 290°
2026-05-05 14:09 52.74360 3.95095 38002 ft 439 kts 290°
2026-05-05 14:10 52.76450 3.85584 38001 ft 443 kts 290°
2026-05-05 14:10 52.78548 3.75993 37999 ft 442 kts 290°
2026-05-05 14:11 52.80272 3.68078 38000 ft 442 kts 289°
2026-05-05 14:11 52.81136 3.64102 37999 ft 441 kts 289°
2026-05-05 14:13 52.82953 3.55712 38000 ft 441 kts 289°
2026-05-05 14:13 52.85011 3.46164 38000 ft 441 kts 289°
2026-05-05 14:14 52.87072 3.36562 38000 ft 441 kts 289°
2026-05-05 14:14 52.89111 3.27012 38000 ft 441 kts 289°
2026-05-05 14:15 52.91149 3.17397 37999 ft 441 kts 287°
2026-05-05 14:15 52.92665 3.07579 38000 ft 441 kts 283°
2026-05-05 14:16 52.93998 2.97687 38000 ft 441 kts 282°
2026-05-05 14:16 52.95292 2.87724 38000 ft 441 kts 282°
2026-05-05 14:17 52.96578 2.77777 38000 ft 441 kts 282°
2026-05-05 14:17 52.97858 2.67864 38000 ft 441 kts 282°
2026-05-05 14:18 52.99134 2.57938 38000 ft 441 kts 282°
2026-05-05 14:18 53.00407 2.47972 38000 ft 441 kts 282°
2026-05-05 14:19 53.01671 2.38005 38000 ft 441 kts 282°
2026-05-05 14:19 53.02920 2.28080 38000 ft 441 kts 282°
2026-05-05 14:20 53.04168 2.18090 38000 ft 441 kts 282°
2026-05-05 14:20 53.05400 2.08158 38000 ft 441 kts 281°
2026-05-05 14:21 53.06625 1.98196 38000 ft 441 kts 281°
2026-05-05 14:21 53.07848 1.88180 38000 ft 441 kts 281°
2026-05-05 14:22 53.09061 1.78170 37665 ft 441 kts 281°
2026-05-05 14:22 53.09664 1.73159 37165 ft 441 kts 281°
2026-05-05 14:22 53.10258 1.68215 36688 ft 441 kts 281°
2026-05-05 14:23 53.10734 1.64233 36287 ft 440 kts 281°
2026-05-05 14:23 53.11328 1.59250 35797 ft 439 kts 281°
2026-05-05 14:23 53.11922 1.54252 35296 ft 439 kts 281°
2026-05-05 14:23 53.12514 1.49245 34795 ft 440 kts 281°
2026-05-05 14:24 53.13107 1.44216 34299 ft 441 kts 281°
2026-05-05 14:24 53.13691 1.39242 33810 ft 442 kts 281°
2026-05-05 14:24 53.14282 1.34191 33313 ft 443 kts 281°
2026-05-05 14:24 53.14872 1.29123 32814 ft 444 kts 281°
2026-05-05 14:25 53.15460 1.24057 32343 ft 445 kts 281°
2026-05-05 14:25 53.16043 1.19016 31973 ft 446 kts 281°
2026-05-05 14:25 53.16628 1.13942 31604 ft 447 kts 281°
2026-05-05 14:25 53.17214 1.08830 31230 ft 448 kts 281°
2026-05-05 14:26 53.17790 1.03786 30859 ft 449 kts 281°
2026-05-05 14:26 53.18374 0.98652 30488 ft 449 kts 281°
2026-05-05 14:26 53.18956 0.93521 30118 ft 448 kts 281°
2026-05-05 14:26 53.19532 0.88417 29735 ft 446 kts 281°
2026-05-05 14:27 53.20103 0.83335 29361 ft 443 kts 280°
2026-05-05 14:27 53.20660 0.78359 28990 ft 440 kts 280°
2026-05-05 14:27 53.21221 0.73331 28613 ft 438 kts 280°
2026-05-05 14:27 53.21777 0.68321 28236 ft 435 kts 280°
2026-05-05 14:28 53.22325 0.63370 27856 ft 432 kts 280°
2026-05-05 14:28 53.22863 0.58487 27413 ft 430 kts 280°
2026-05-05 14:28 53.23400 0.53587 26963 ft 427 kts 280°
2026-05-05 14:28 53.23933 0.48714 26511 ft 424 kts 280°
2026-05-05 14:29 53.24461 0.43863 26049 ft 421 kts 280°
2026-05-05 14:29 53.24974 0.39127 25610 ft 418 kts 280°
2026-05-05 14:29 53.25489 0.34355 25161 ft 415 kts 280°
2026-05-05 14:29 53.26002 0.29590 24709 ft 412 kts 280°
2026-05-05 14:30 53.26499 0.24949 24264 ft 409 kts 280°
2026-05-05 14:30 53.26998 0.20269 23815 ft 406 kts 280°
2026-05-05 14:30 53.27494 0.15608 23358 ft 404 kts 280°
2026-05-05 14:30 53.27975 0.11065 22904 ft 401 kts 280°
2026-05-05 14:31 53.28458 0.06479 22460 ft 398 kts 279°
2026-05-05 14:31 53.28682 0.01862 22009 ft 395 kts 270°
2026-05-05 14:31 53.28670 -0.02712 21559 ft 393 kts 269°
2026-05-05 14:31 53.28616 -0.07261 21186 ft 389 kts 269°
2026-05-05 14:32 53.28549 -0.11719 20939 ft 387 kts 268°
2026-05-05 14:32 53.28475 -0.16217 20689 ft 386 kts 268°
2026-05-05 14:32 53.28398 -0.20700 20435 ft 385 kts 268°
2026-05-05 14:32 53.28318 -0.25173 20188 ft 383 kts 268°
2026-05-05 14:33 53.28238 -0.29570 19940 ft 382 kts 268°
2026-05-05 14:33 53.28155 -0.34006 19689 ft 380 kts 268°
2026-05-05 14:33 53.28071 -0.38416 19438 ft 378 kts 268°
2026-05-05 14:33 53.27987 -0.42775 19193 ft 377 kts 268°
2026-05-05 14:34 53.27900 -0.47155 18938 ft 376 kts 268°
2026-05-05 14:34 53.27812 -0.51536 18680 ft 374 kts 268°
2026-05-05 14:34 53.27722 -0.55892 18435 ft 373 kts 268°
2026-05-05 14:34 53.27633 -0.60152 18187 ft 371 kts 268°
2026-05-05 14:35 53.27542 -0.64457 17939 ft 370 kts 268°
2026-05-05 14:35 53.27449 -0.68762 17687 ft 368 kts 268°
2026-05-05 14:35 53.27355 -0.73033 17436 ft 367 kts 268°
2026-05-05 14:35 53.27259 -0.77301 17108 ft 366 kts 268°
2026-05-05 14:36 53.27164 -0.81506 16703 ft 364 kts 268°
2026-05-05 14:36 53.27067 -0.85723 16328 ft 362 kts 268°
2026-05-05 14:36 53.26968 -0.89921 15952 ft 360 kts 268°
2026-05-05 14:36 53.26869 -0.94096 15577 ft 358 kts 268°
2026-05-05 14:37 53.26815 -0.96344 15371 ft 357 kts 268°
2026-05-05 14:37 53.26773 -0.98100 15213 ft 356 kts 268°
2026-05-05 14:37 53.26671 -1.02244 14833 ft 354 kts 268°
2026-05-05 14:38 53.26570 -1.06346 14460 ft 352 kts 268°
2026-05-05 14:38 53.26469 -1.10362 14110 ft 350 kts 268°
2026-05-05 14:38 53.26366 -1.14424 13756 ft 348 kts 268°
2026-05-05 14:38 53.26262 -1.18459 13404 ft 346 kts 267°
2026-05-05 14:39 53.26157 -1.22483 13054 ft 345 kts 267°
2026-05-05 14:39 53.26052 -1.26443 12705 ft 343 kts 267°
2026-05-05 14:39 53.25946 -1.30396 12356 ft 341 kts 267°
2026-05-05 14:39 53.25838 -1.34364 12006 ft 339 kts 267°
2026-05-05 14:40 53.25766 -1.36973 11773 ft 338 kts 267°
2026-05-05 14:40 53.25658 -1.40882 11423 ft 337 kts 267°
2026-05-05 14:40 53.25549 -1.44781 11078 ft 335 kts 267°
2026-05-05 14:40 53.25519 -1.45816 10976 ft 334 kts 267°
2026-05-05 14:41 53.25510 -1.46152 10948 ft 334 kts 267°
2026-05-05 14:47 53.25479 -1.47249 10850 ft 334 kts 267°
2026-05-05 14:47 53.25368 -1.51120 10498 ft 332 kts 267°
2026-05-05 14:47 53.25256 -1.54979 10138 ft 328 kts 267°
2026-05-05 14:47 53.25147 -1.58719 9785 ft 322 kts 267°
2026-05-05 14:48 53.25038 -1.62426 9456 ft 315 kts 267°
2026-05-05 14:48 53.24930 -1.66039 9139 ft 308 kts 267°
2026-05-05 14:48 53.24824 -1.69531 8839 ft 301 kts 267°
2026-05-05 14:48 53.24719 -1.73002 8532 ft 295 kts 267°
2026-05-05 14:49 53.24614 -1.76410 8225 ft 289 kts 267°
2026-05-05 14:49 53.24512 -1.79693 7939 ft 284 kts 267°
2026-05-05 14:49 53.24410 -1.82957 7674 ft 279 kts 267°
2026-05-05 14:49 53.24309 -1.86187 7420 ft 277 kts 267°
2026-05-05 14:50 53.24213 -1.89193 7191 ft 277 kts 267°
2026-05-05 14:50 53.24110 -1.92406 7148 ft 277 kts 268°
2026-05-05 14:50 53.24007 -1.95580 6900 ft 276 kts 268°
2026-05-05 14:50 53.23902 -1.98792 6652 ft 275 kts 268°
2026-05-05 14:51 53.23799 -2.01946 6407 ft 275 kts 268°
2026-05-05 14:51 53.23693 -2.05140 6144 ft 275 kts 269°
2026-05-05 14:51 53.23587 -2.08326 5879 ft 274 kts 268°
2026-05-05 14:51 53.23480 -2.11501 5627 ft 271 kts 268°
2026-05-05 14:52 53.23374 -2.14598 5380 ft 270 kts 268°
2026-05-05 14:52 53.23267 -2.17736 5143 ft 269 kts 268°
2026-05-05 14:52 53.23160 -2.20840 5012 ft 268 kts 268°
2026-05-05 14:52 53.23053 -2.23950 4886 ft 267 kts 269°
2026-05-05 14:53 53.22944 -2.27042 4755 ft 267 kts 269°
2026-05-05 14:53 53.22835 -2.30137 4625 ft 266 kts 268°
2026-05-05 14:53 53.22725 -2.33196 4455 ft 261 kts 269°
2026-05-05 14:53 53.22619 -2.36153 4200 ft 258 kts 268°
2026-05-05 14:54 53.22511 -2.39157 3867 ft 258 kts 268°
2026-05-05 14:54 53.22402 -2.42056 3539 ft 259 kts 267°
2026-05-05 14:54 53.21918 -2.45021 3206 ft 263 kts 246°
2026-05-05 14:54 53.20999 -2.47655 3009 ft 263 kts 235°
2026-05-05 14:55 53.19854 -2.50000 2984 ft 255 kts 230°
2026-05-05 14:55 53.18709 -2.52157 2978 ft 240 kts 230°
2026-05-05 14:55 53.17604 -2.54196 2981 ft 235 kts 229°
2026-05-05 14:55 53.16545 -2.56256 2977 ft 230 kts 238°
2026-05-05 14:56 53.15921 -2.58521 2972 ft 210 kts 266°
2026-05-05 14:56 53.16134 -2.60833 2987 ft 201 kts 301°
2026-05-05 14:56 53.17110 -2.62415 2995 ft 197 kts 337°
2026-05-05 14:56 53.18417 -2.63097 2987 ft 197 kts 348°
2026-05-05 14:57 53.19773 -2.63267 2983 ft 197 kts 12°
2026-05-05 14:57 53.20958 -2.62155 2995 ft 200 kts 44°
2026-05-05 14:57 53.21669 -2.60190 3095 ft 196 kts 72°
2026-05-05 14:57 53.21883 -2.58080 3194 ft 172 kts 79°
2026-05-05 14:58 53.21897 -2.57910 3199 ft 170 kts 78°
2026-05-05 15:00 53.21994 -2.56672 3199 ft 157 kts 78°
2026-05-05 15:00 53.22299 -2.54446 3193 ft 142 kts 59°
2026-05-05 15:00 53.22800 -2.53104 3086 ft 137 kts 56°
2026-05-05 15:01 53.23322 -2.51774 3033 ft 137 kts 52°
2026-05-05 15:01 53.23898 -2.50495 3018 ft 138 kts 50°
2026-05-05 15:01 53.24502 -2.49260 3032 ft 137 kts 46°
2026-05-05 15:01 53.25132 -2.48081 3095 ft 136 kts 44°
2026-05-05 15:02 53.25775 -2.46940 3134 ft 136 kts 43°
2026-05-05 15:02 53.26455 -2.45829 3016 ft 137 kts 41°
2026-05-05 15:02 53.27149 -2.44730 2858 ft 137 kts 44°
2026-05-05 15:02 53.27756 -2.43493 2731 ft 138 kts 51°
2026-05-05 15:03 53.28294 -2.42170 2575 ft 138 kts 54°
2026-05-05 15:03 53.28835 -2.40849 2343 ft 136 kts 53°
2026-05-05 15:03 53.29336 -2.39484 2037 ft 140 kts 61°
2026-05-05 15:03 53.29797 -2.38068 1598 ft 140 kts 50°
2026-05-05 15:04 53.30419 -2.36839 1228 ft 138 kts 45°
2026-05-05 15:04 53.31017 -2.35584 911 ft 135 kts 52°
2026-05-05 15:04 53.31595 -2.34321 740 ft 139 kts 48°
2026-05-05 15:04 53.32220 -2.33059 581 ft 142 kts 49°
2026-05-05 15:05 53.33479 -2.30475 239 ft 141 kts 50°
2026-05-05 15:05 53.34063 -2.29279 250 ft 97 kts 51°
2026-05-05 15:05 53.34287 -2.28813 254 ft 30 kts 50°
2026-05-05 15:06 53.34420 -2.28612 257 ft 23 kts 30°
2026-05-05 15:06 53.34555 -2.28504 261 ft 20 kts 21°
2026-05-05 15:06 53.34603 -2.28473 262 ft 0 kts 20°
2026-05-05 15:07 53.34653 -2.28441 263 ft 17 kts 20°
2026-05-05 15:08 53.34784 -2.28252 263 ft 31 kts 51°
2026-05-05 15:08 53.34903 -2.28006 263 ft 25 kts 51°
2026-05-05 15:08 53.35013 -2.27782 262 ft 25 kts 50°
2026-05-05 15:08 53.35122 -2.27558 262 ft 24 kts 52°
2026-05-05 15:09 53.35228 -2.27334 260 ft 25 kts 51°
2026-05-05 15:09 53.35304 -2.27203 254 ft 17 kts 27°
2026-05-05 15:09 53.35419 -2.27250 247 ft 19 kts 321°
2026-05-05 15:09 53.35522 -2.27389 247 ft 19 kts 321°
2026-05-05 15:10 53.35564 -2.27446 247 ft 0 kts 320°
2026-05-05 15:11 53.35578 -2.27466 248 ft 8 kts 320°
2026-05-05 15:12 53.35653 -2.27569 249 ft 17 kts 320°
2026-05-05 15:12 53.35748 -2.27653 251 ft 15 kts 337°
2026-05-05 15:12 53.35824 -2.27750 252 ft 18 kts 310°
2026-05-05 15:12 53.35925 -2.27846 253 ft 16 kts
2026-05-05 15:13 53.36037 -2.27832 252 ft 16 kts 351°
2026-05-05 15:13 53.36119 -2.27935 253 ft 14 kts 315°
2026-05-05 15:13 53.36188 -2.28049 253 ft 14 kts 316°
2026-05-05 15:13 53.36264 -2.28073 253 ft 9 kts 17°
2026-05-05 15:14 53.36341 -2.28021 252 ft 14 kts 37°
2026-05-05 15:14 53.36392 -2.27896 251 ft 9 kts 95°
2026-05-05 15:14 53.36361 -2.27812 250 ft 8 kts 130°
2026-05-05 15:14 53.36336 -2.27721 249 ft 8 kts 106°
2026-05-05 15:15 53.36307 -2.27668 249 ft 4 kts 174°
2026-05-05 15:15 53.36265 -2.27692 249 ft 4 kts 205°
2026-05-05 15:15 53.36250 -2.27703 249 ft 0 kts 198°